Location: Newark
(63.1158°N, 8.1461°E)
Time: 17:59:17
(UTC+00:00)

Envisat - Pass Details

Date: 15 December 2019
Orbit: 764 x 766 km, 98.1° (Epoch: 21 January)

Event Time Altitude Azimuth Distance (km) Brightness Sun altitude
Rises 04:49:01 0° 20° (NNE) 3,251 6.5 -24.3°
Reaches altitude 10° 04:52:07 10° 40° (NE) 2,319 5.9 -24.0°
Maximum altitude 04:55:31 18° 82° (E) 1,839 5.8 -23.6°
Drops below altitude 10° 04:58:54 10° 124° (ESE) 2,308 6.3 -23.2°
Sets 05:01:58 0° 143° (SE) 3,229 6.9 -22.9°
